Regional Weather Roundup
Issued by NWS Goodland, KS

Home | Current Version | Previous Version | Graphics & Text | Print | Product List | Glossary On
Versions: 1 2 3 4 5 6 7 8 9 10 11 12 13 14 15 16 17 18 19 20 21 22 23 24 25 26 27 28 29 30 31 32 33 34 35 36 37 38 39 40 41 42 43 44 45 46 47 48 49 50
000
ASUS43 KGLD 190959
RWRGLD

GOODLAND FORECAST AREA HOURLY WEATHER ROUNDUP
NATIONAL WEATHER SERVICE GOODLAND KS
400 AM MDT FRI SEP 19 2014

...OFFICIAL OBSERVATIONS...

CITY           SKY/WX    TMP DP  RH WIND       PRES   REMARKS
GOODLAND KS    CLEAR     63  58  83 SW12      29.93S
HILL CITY KS   CLEAR     63  60  90 S5        29.90S
IMPERIAL NEB   CLEAR     55  52  89 S5        29.87S
MCCOOK NEB     CLEAR     55  54  96 E5        29.88S FOG
AKRON CO       CLEAR     65  54  67 SW16G23   29.94S
BURLINGTON CO  CLEAR     62  56  80 SW14      29.95F
LIMON CO       CLEAR     60  50  69 SW8       30.01F
$$

...UNOFFICIAL OBSERVATIONS...

CITY           SKY/WX    TMP DP  RH WIND       PRES   REMARKS
COLBY KS       CLEAR     64  64 100 S10       29.93R
GOVE KS          N/A     67  32  27 MISG        N/A
NORTON KS      CLEAR     63  57  82 SE7       29.88S
SHARON SPRINGS   N/A     61  58  91 SW9         N/A
WAKEENEY KS      N/A     65  59  83 MISG        N/A
TRENTON NEB      N/A     57  32  39 SW5         N/A
YUMA CO          N/A     62  55  78 SW8         N/A
$$


USA.gov is the U.S. government's official web portal to all federal, state and local government web resources and services.